TimeHST,TemperatureF,Dew PointF,Humidity,Sea Level PressureIn,VisibilityMPH,Wind Direction,Wind SpeedMPH,Gust SpeedMPH,PrecipitationIn,Events,Conditions,WindDirDegrees,DateUTC
12:53 AM,77.0,72.0,84,29.99,10.0,Calm,Calm,-,N/A,,Overcast,0,2012-12-04 10:53:00
1:53 AM,77.0,72.0,84,29.98,10.0,Calm,Calm,-,N/A,,Scattered Clouds,0,2012-12-04 11:53:00
2:53 AM,75.0,68.0,79,29.96,10.0,Calm,Calm,-,N/A,,Clear,0,2012-12-04 12:53:00
3:53 AM,73.9,66.9,79,29.97,10.0,NE,3.5,-,N/A,,Scattered Clouds,50,2012-12-04 13:53:00
4:53 AM,73.0,66.9,81,29.97,10.0,North,4.6,-,N/A,,Clear,10,2012-12-04 14:53:00
5:53 AM,73.0,66.9,81,29.98,10.0,ENE,6.9,-,N/A,,Clear,60,2012-12-04 15:53:00
6:53 AM,75.0,68.0,79,30.01,10.0,Calm,Calm,-,N/A,,Mostly Cloudy,0,2012-12-04 16:53:00
7:37 AM,75.2,66.2,73,30.02,10.0,Calm,Calm,-,N/A,,Scattered Clouds,0,2012-12-04 17:37:00
7:53 AM,78.1,68.0,71,30.02,10.0,Calm,Calm,-,N/A,,Clear,0,2012-12-04 17:53:00
8:53 AM,79.0,68.0,69,30.03,10.0,Calm,Calm,-,N/A,,Clear,0,2012-12-04 18:53:00
9:53 AM,80.1,71.1,74,30.03,10.0,WNW,5.8,-,N/A,,Clear,300,2012-12-04 19:53:00
10:53 AM,80.1,71.1,74,30.02,10.0,West,6.9,-,N/A,,Clear,280,2012-12-04 20:53:00
11:53 AM,81.0,70.0,69,30.00,10.0,West,6.9,-,N/A,,Overcast,270,2012-12-04 21:53:00
12:53 PM,80.1,71.1,74,29.98,10.0,West,8.1,-,N/A,,Overcast,260,2012-12-04 22:53:00
1:53 PM,80.1,71.1,74,29.96,10.0,West,8.1,-,N/A,,Overcast,270,2012-12-04 23:53:00
2:53 PM,80.1,70.0,71,29.96,10.0,West,8.1,-,N/A,,Overcast,280,2012-12-05 00:53:00
3:53 PM,80.1,70.0,71,29.97,10.0,NW,8.1,-,N/A,,Overcast,310,2012-12-05 01:53:00
4:53 PM,80.1,70.0,71,29.98,10.0,WNW,6.9,-,N/A,,Mostly Cloudy,290,2012-12-05 02:53:00
5:17 PM,78.8,69.8,74,29.98,10.0,WNW,5.8,-,N/A,,Overcast,290,2012-12-05 03:17:00
5:30 PM,78.8,69.8,74,29.97,10.0,WNW,6.9,-,N/A,,Overcast,300,2012-12-05 03:30:00
5:53 PM,79.0,71.1,77,29.99,10.0,NW,6.9,-,N/A,,Overcast,310,2012-12-05 03:53:00
6:53 PM,78.1,71.1,79,29.99,10.0,North,4.6,-,N/A,,Overcast,350,2012-12-05 04:53:00
7:53 PM,78.1,71.1,79,30.00,10.0,NW,3.5,-,N/A,,Overcast,320,2012-12-05 05:53:00
8:53 PM,78.1,71.1,79,30.02,10.0,SE,4.6,-,N/A,,Mostly Cloudy,140,2012-12-05 06:53:00
9:53 PM,78.1,70.0,76,30.02,10.0,SSE,5.8,-,N/A,,Overcast,150,2012-12-05 07:53:00
10:53 PM,78.1,68.0,71,30.03,10.0,SSE,3.5,-,N/A,,Overcast,150,2012-12-05 08:53:00
11:53 PM,78.1,69.1,74,30.03,10.0,ESE,4.6,-,N/A,,Overcast,120,2012-12-05 09:53:00